Content
SEND FEEDBACK

Daily
Averages
Monthly
Summary
United States of America

CHICAGO, ILLINOIS


Home > North America > United States > Illinois
Elevation: 205 meters     Latitude: 41 59N     Longitude: 087 54W

WEATHER
 
SELECT A DAY
Number of Records: 194,820;   Date Range: 7/8/95 - 7/23/14
 
SHARE

PRINT THIS DATA

[ ← Previous Day ]
WEATHER ALMANAC - 17 JUNE, 2014
[ Next Day → ]
[ °F ]   °C
Weather ElementAverageHighLow
Temperature27 °C32.2 °C (4:52 pm)23.9 °C (10:52 pm)
Dewpoint18.6 °C20.6 °C (2:52 am)15.6 °C (1:52 pm)
Humidity61 %72 % (2:52 am)41 % (1:52 pm)
Barometer1011.5 hPa1013.5 hPa (9:52 pm)1008.8 hPa (8:52 am)
Wind Speed17.7 km/h35.2 km/h (4:52 am)
Wind Gust59.2 km/h (6:36 am)
Weather ElementAverage
Visibility16.1 km
Wind DirectionSSW (186.8 °)

Weather ElementTotal
Precipitation0.25 mm
Cooling Degree Days9.7 (Base 18.3)
Growing Degree Days18.1 (Base 10)
Averaged from 25 records on 17 June, 2014
WEATHER CONDITIONS BREAKOUT
WIND DIRECTION BREAKOUT
WEATHER BY HOUR - 17 JUNE, 2014
[ °F ]   °C
Local TimeTemperatureDewpointHumidityBarometerVisibilityWind DirectionWind SpeedGust SpeedPrecipitationEventsConditions
1:52 AM27.2 °C20 °C65 %1012.2 hPa16.1 kmSouth (190°)22.2 km/hPartly Cloudy
2:52 AM26.1 °C20.6 °C72 %1011.9 hPa16.1 kmSouth (190°)18.5 km/h0.25 mmRainLight Rain
3:52 AM26.1 °C20.6 °C72 %1010.5 hPa16.1 kmSouth (180°)22.2 km/h38.9 km/h0 mmClear
4:52 AM26.1 °C20 °C69 %1009.8 hPa16.1 kmSouth (190°)35.2 km/h48.1 km/h0 mmPartly Cloudy
5:52 AM26.1 °C20 °C69 %1010.2 hPa16.1 kmSSW (200°)29.6 km/h42.6 km/hMostly Cloudy
6:36 AM26.1 °C20 °C69 %1010.8 hPa16.1 kmSSW (210°)25.9 km/h59.2 km/hOvercast
6:52 AM26.1 °C20.6 °C72 %1010.2 hPa16.1 kmSSW (210°)20.4 km/h38.9 km/hMostly Cloudy
7:52 AM26.1 °C20.6 °C72 %1010.2 hPa16.1 kmSSW (200°)27.8 km/h44.4 km/hMostly Cloudy
8:00 AM26.1 °C20.6 °C72 %1010.5 hPa16.1 kmSSW (210°)31.5 km/h42.6 km/hPartly Cloudy
8:52 AM26.1 °C19.4 °C66 %1008.8 hPa16.1 kmSouth (190°)31.5 km/h53.8 km/hClear
9:52 AM26.1 °C18.9 °C64 %1009.5 hPa16.1 kmWSW (240°)18.5 km/h33.3 km/hClear
10:52 AM26.7 °C17.8 °C58 %1011.5 hPa16.1 kmWest (270°)18.5 km/hClear
11:52 AM27.2 °C18.3 °C58 %1012.2 hPa16.1 kmWest (280°)16.7 km/hClear
12:52 PM28.3 °C17.2 °C51 %1012.2 hPa16.1 kmSW (220°)16.7 km/h33.3 km/hClear
1:52 PM30 °C15.6 °C41 %1011.9 hPa16.1 kmWSW (240°)18.5 km/hClear
4:52 PM32.2 °C17.8 °C42 %1011.9 hPa16.1 kmWest (280°)13 km/hClear
5:52 PM32.2 °C18.3 °C43 %1011.5 hPa16.1 kmWSW (250°)11.1 km/hClear
6:52 PM32.2 °C18.3 °C43 %1011.9 hPa16.1 kmSW (220°)9.3 km/hClear
7:52 PM26.7 °C17.2 °C56 %1012.2 hPa16.1 kmEast (90°)11.1 km/hScattered Clouds
8:20 PM26.1 °C17.2 °C58 %1013.2 hPa16.1 kmESE (120°)7.4 km/hThunderstormMostly Cloudy
8:35 PM26.1 °C17.2 °C58 %1013.2 hPa16.1 kmESE (120°)7.4 km/hOvercast
8:52 PM26.1 °C17.2 °C58 %1012.9 hPa16.1 kmESE (120°)9.3 km/hMostly Cloudy
9:52 PM24.4 °C16.7 °C62 %1013.5 hPa16.1 kmSE (130°)11.1 km/hPartly Cloudy
10:52 PM23.9 °C17.2 °C66 %1013.5 hPa16.1 kmESE (120°)7.4 km/h0 mmPartly Cloudy
11:52 PM23.9 °C17.8 °C69 %1013.2 hPa16.1 kmCalmPartly Cloudy
Hourly data recorded from KPWK, located 0 kilometers away from Chicago, Illinois







STORIES FROM OUR PARTNERS